{"data":{"norad_id":56521,"intl_designator":"2023-065U","name":"STARLINK-6333","alt_names":[],"object_type":"PAYLOAD","status":"ACTIVE","operator":null,"country":"US","launch_date":"2023-05-14","launch_site_code":"AFETR","launch_vehicle":null,"mission":null,"orbit_class":"UNKNOWN","rcs_meters":null,"size_class":null,"mass_kg":null,"dimensions":null,"purposes":["comms"],"wikipedia_slug":null,"has_3d_model":false,"image_url":null,"decayed_at":null,"tle_current":{"epoch":"2026-05-24T23:19:36.023808Z","epoch_age_seconds":84444,"freshness":"FRESH","line1":"1 56521U 23065U   26144.97194472 -.00000047  00000+0  78090-5 0  9995","line2":"2 56521  43.0015 145.2812 0000793 278.2345  81.8416 15.27573041168229","mean_motion":15.27573041,"eccentricity":7.93e-5,"inclination_deg":43.0015,"raan_deg":145.2812,"arg_perigee_deg":278.2345,"mean_anomaly_deg":81.8416,"bstar":7.809e-6,"rev_number":16822,"period_min":94.267178154527,"perigee_km":482.52584015839,"apogee_km":483.6140275781,"semimajor_km":6861.2069338682,"source":"CELESTRAK","updated_at":"2026-05-25T13:38:18.109476Z"}}}